User: anonymous   Login
Location: Irma
(52.9170°N, 111.2330°W)
Time: 15:36:31
(UTC-07:00)
Language:

Cosmos 2279 Rocket - Orbit

View from above orbital plane
View from above orbital plane
View from above satellite
View from above satellite

Ground track
Ground track

The orbit data is extracted from the following two-line orbital elements,

1 23093U 94024B   16039.71802826 +.00000082 +00000-0 +66453-4 0  9997
2 23093 082.9483 122.2514 0008918 315.2004 044.8433 13.77683364563100
Epoch (UTC): 08 February 2016 17:13:57
Eccentricity: 0.0008918
inclination: 82.9483°
perigee height: 965 km
apogee height: 978 km
right ascension of ascending node: 122.2514°
argument of perigee: 315.2004°
revolutions per day: 13.77683364
mean anomaly at epoch: 44.8433°
orbit number at epoch: 56310

The dashed part of the orbit path shows where the satellite is in the earth's shadow,  

DLR